Theta_e
339 339 339 341 342 343 343 343 342 340 340 339 338 339 340 338 339 338 337 337 336 338 338 337 336 336 335 335 334 332 330 328 325 323 324 327 330 333 332 328 325 323 321 319 318 318 320 321 324 325 327 329 328 331 333 332 331 329 330 329 329 331
340 340 339 340 341 342 343 342 342 340 340 340 339 339 339 338 338 337 337 337 336 339 339 337 336 335 335 334 333 333 331 329 326 323 322 323 326 329 332 331 327 324 322 319 319 320 322 322 323 325 327 330 329 329 331 333 331 330 330 329 330 329
339 339 339 339 340 341 342 342 342 341 340 340 339 339 339 338 338 337 337 337 337 339 340 339 337 334 334 334 333 333 332 331 328 325 323 323 324 326 328 330 329 327 324 322 320 321 322 322 322 324 327 330 330 329 331 332 332 331 330 329 329 328
338 338 339 337 338 339 340 342 341 341 340 339 339 338 338 338 338 338 336 336 336 338 340 339 337 335 334 334 334 333 332 332 331 329 326 324 324 326 326 327 329 328 326 324 322 322 323 322 320 323 326 329 331 330 330 332 332 331 330 329 329 328
338 338 338 338 338 338 340 341 341 341 340 339 339 338 338 337 338 337 336 335 335 336 339 338 336 335 334 333 334 333 332 332 334 333 329 327 327 327 326 326 328 328 327 325 323 323 323 323 321 321 325 329 330 330 330 331 332 331 330 329 328 327
338 338 338 338 338 338 339 340 341 340 340 339 339 339 338 337 337 337 337 336 335 336 338 337 335 334 332 331 332 331 331 331 335 336 331 329 329 327 326 327 328 329 328 326 324 323 323 322 321 321 323 327 330 330 331 331 331 331 330 329 328 327
338 338 338 338 337 338 338 338 339 339 339 339 339 339 338 338 338 337 336 336 336 337 337 336 335 333 333 332 331 331 330 331 334 335 331 330 330 328 325 325 328 329 328 326 325 324 323 321 321 320 322 326 329 330 331 331 331 331 330 329 328 327
338 338 338 337 337 338 337 337 338 337 337 337 338 338 339 339 338 338 337 336 336 337 336 335 334 333 333 333 332 332 331 331 333 333 331 329 330 327 323 324 327 327 327 326 324 323 323 322 321 320 321 324 328 329 330 331 331 330 329 328 327 327
338 337 337 337 336 336 337 337 337 336 336 335 336 337 338 339 338 338 337 336 336 336 336 336 334 333 333 333 332 332 332 332 333 332 331 329 327 326 324 323 324 325 325 325 323 322 323 324 323 322 321 324 328 329 329 329 329 329 329 328 327 327
335 335 335 337 337 336 337 337 337 336 335 334 334 335 336 338 338 337 337 336 335 336 337 336 336 335 334 333 332 333 333 332 333 332 330 328 325 324 324 323 323 324 323 323 323 321 324 326 325 324 323 324 328 329 329 329 328 328 328 327 327 327
333 332 332 334 336 337 337 337 337 336 336 334 334 334 335 335 336 335 336 336 336 336 337 336 336 336 335 333 331 333 334 333 334 333 331 330 326 324 324 323 323 322 320 320 322 322 324 326 327 326 325 326 328 329 329 329 329 329 328 327 327 327
331 329 330 332 332 335 337 337 337 336 336 335 334 335 335 335 334 334 335 336 336 336 336 335 334 333 332 332 332 333 333 333 334 333 332 330 327 325 324 324 323 321 320 321 321 322 324 325 326 327 327 328 329 329 329 329 329 329 329 328 327 327
329 328 329 331 332 334 336 337 337 335 336 335 335 335 334 335 334 333 335 334 334 335 335 333 332 330 330 332 332 332 332 332 332 332 332 328 326 325 324 324 326 325 324 324 323 324 325 326 327 328 329 329 330 330 330 330 329 329 329 329 328 327
329 330 329 332 334 334 335 336 336 334 334 334 333 334 333 333 333 332 334 333 333 332 332 331 331 330 331 331 331 331 330 331 331 331 331 329 327 326 324 324 327 328 327 327 327 327 328 331 330 330 330 330 330 330 330 330 330 329 329 329 329 328
329 330 329 331 332 331 331 333 333 331 329 329 330 331 332 332 332 331 330 329 330 330 329 329 329 329 330 331 331 331 331 331 331 330 330 330 328 327 325 325 328 329 329 330 330 330 330 332 332 331 331 331 330 330 330 330 330 329 329 329 329 328
328 328 327 328 327 326 327 328 327 325 323 323 324 327 328 329 329 327 326 325 326 328 327 326 326 327 327 328 329 331 330 330 331 330 330 330 329 328 328 328 329 327 327 329 330 331 331 330 331 331 331 331 331 331 330 329 329 329 329 328 329 328
326 326 325 325 324 323 324 324 323 322 321 321 322 323 325 326 326 325 324 324 325 326 325 324 325 326 325 326 327 329 329 329 330 330 330 330 328 329 329 329 330 326 323 325 328 330 330 330 330 330 330 331 331 331 330 329 328 328 328 328 329 329
325 324 324 323 322 323 323 322 322 322 321 320 321 323 325 326 325 324 323 322 324 325 325 325 327 327 326 326 326 326 327 328 330 330 330 330 329 330 330 330 331 328 324 324 327 329 329 329 329 329 330 331 331 331 330 329 328 328 328 328 328 329
325 324 323 322 322 322 321 320 322 323 321 319 320 323 325 326 325 323 322 321 321 323 324 325 326 326 326 327 326 326 326 326 327 330 330 330 330 330 330 330 331 331 328 328 329 330 330 330 328 328 330 331 331 330 329 328 327 327 327 327 328 329
324 323 323 322 322 321 319 319 321 322 320 319 320 322 324 325 324 322 322 321 320 320 321 323 322 323 325 326 326 326 326 325 325 328 329 330 330 330 330 330 330 331 331 331 331 331 331 331 329 329 330 330 331 330 329 327 326 326 327 326 327 328
325 324 323 322 321 319 317 319 321 320 319 320 321 322 324 324 323 322 321 320 319 317 318 320 319 320 322 324 325 326 326 327 327 327 328 329 328 329 329 330 329 329 330 330 330 330 330 330 330 330 330 330 330 331 330 329 327 325 325 326 326 327
325 324 322 321 319 317 317 319 320 319 319 321 321 322 324 323 322 321 321 318 317 316 316 317 318 319 321 323 324 325 325 326 326 327 327 327 327 328 328 328 328 328 329 330 330 330 330 330 330 329 328 329 330 330 330 330 329 328 327 326 326 325
323 324 322 319 316 315 317 317 317 317 318 320 322 323 323 322 321 321 319 318 318 318 317 317 318 319 321 323 323 323 323 323 323 324 325 324 325 326 327 327 327 327 328 328 328 328 329 329 329 328 327 330 331 331 331 330 330 330 329 328 328 327
321 322 320 317 315 315 316 316 315 317 317 318 320 321 320 319 320 319 318 318 317 316 317 318 318 319 321 322 322 321 321 321 321 321 321 321 321 322 324 325 326 327 327 327 327 327 327 328 329 329 329 330 330 331 332 331 330 330 328 328 328 327
319 320 317 315 314 314 316 315 315 317 317 317 318 318 317 317 318 318 318 317 314 313 316 318 318 320 321 321 321 321 321 321 320 320 320 320 319 319 320 321 324 327 327 327 327 327 327 327 328 328 329 329 329 331 332 330 330 330 329 328 328 327
318 317 315 314 314 314 315 313 314 317 317 318 318 318 316 315 315 317 317 315 312 313 317 317 318 319 319 320 319 320 319 319 319 319 319 319 319 319 318 318 320 323 325 326 326 326 326 326 327 326 326 328 329 330 331 330 331 332 331 328 328 328
316 315 314 314 313 313 313 313 312 313 313 313 314 313 312 311 312 315 316 313 310 313 316 316 317 317 317 318 317 317 318 318 318 317 317 317 317 317 317 317 317 318 320 321 323 324 324 324 325 325 325 326 327 327 328 329 330 332 332 330 329 329
315 314 313 313 313 312 312 312 312 312 311 310 309 308 309 311 312 314 316 313 310 312 313 314 315 316 316 315 314 314 315 314 314 313 313 313 313 313 313 313 313 314 315 316 318 320 321 321 322 322 322 324 324 325 326 327 328 329 330 331 330 329
315 314 313 313 313 312 311 312 312 312 312 311 309 308 309 311 313 314 316 313 310 310 311 312 312 313 312 310 308 308 309 308 308 308 309 309 308 308 308 308 308 308 309 310 311 313 316 318 319 319 320 321 322 323 325 325 325 326 327 328 329 328
315 314 313 313 313 313 312 312 312 312 312 312 310 308 309 312 314 315 316 313 310 310 311 311 310 309 308 306 306 306 306 306 307 307 308 307 307 307 307 306 306 306 306 306 307 308 310 313 314 315 317 318 319 320 322 322 322 323 324 326 326 326
315 314 314 314 314 313 313 313 312 312 312 312 311 309 309 311 313 314 315 314 311 310 310 310 309 308 307 307 308 308 308 309 308 308 307 307 307 307 307 307 307 307 306 307 307 306 307 307 309 311 312 314 316 317 318 319 319 320 321 322 323 323
314 314 314 314 314 315 314 314 313 312 312 312 311 311 310 309 310 311 312 313 312 310 311 311 310 309 309 309 310 311 311 310 310 309 307 306 307 307 307 308 308 308 308 307 308 307 307 306 307 308 309 310 312 313 314 315 316 317 318 319 320 321
313 313 314 315 315 315 315 314 314 313 312 311 311 311 311 310 309 308 309 310 311 310 310 310 310 310 309 310 311 312 313 312 311 310 308 306 306 306 307 308 308 309 308 308 308 308 308 307 307 307 308 308 309 310 310 310 311 313 315 316 317 318
313 313 314 316 316 316 316 314 314 314 312 311 312 311 311 311 311 309 308 307 307 308 308 308 308 308 308 310 311 312 313 313 312 310 308 306 305 305 306 308 308 308 308 308 308 307 307 307 307 307 307 308 308 308 308 308 309 310 311 313 315 316
314 314 314 316 316 316 317 316 315 314 313 312 312 312 311 311 311 312 310 308 307 306 306 307 307 308 308 310 311 312 313 313 313 311 308 306 305 305 305 307 308 308 307 307 307 307 307 307 307 306 306 307 307 307 307 307 308 308 309 310 311 312
313 314 314 315 317 317 316 317 316 315 315 314 313 313 312 311 311 312 313 312 310 307 306 306 307 308 309 310 311 312 314 314 313 311 308 306 306 306 305 306 307 307 307 307 307 307 307 307 307 306 306 306 306 307 306 306 307 307 307 308 308 309
312 312 314 314 316 316 316 316 316 316 316 316 315 314 313 312 311 311 313 313 313 311 309 307 307 309 310 311 312 313 314 314 313 310 307 306 306 306 306 307 307 307 307 307 307 307 307 307 307 307 307 306 306 306 306 306 306 306 307 307 307 308
Wind_Speed
9 10 10 10 10 10 10 11 13 14 14 15 17 15 14 14 14 13 12 13 13 12 12 11 11 11 11 10 9 10 9 9 9 9 10 10 11 10 11 11 11 11 12 13 12 11 10 8 6 4 4 5 5 7 10 10 7 6 6 5 5 5
9 9 10 10 9 10 10 10 11 12 14 16 16 15 15 14 13 12 13 14 14 12 11 11 12 12 11 10 9 9 10 9 9 8 8 9 10 9 10 10 10 10 10 11 12 10 9 8 6 5 5 5 6 8 10 11 8 6 6 5 5 5
9 9 9 10 9 9 10 10 10 10 13 15 15 15 15 14 12 12 13 14 14 11 10 11 12 11 10 10 9 9 10 9 9 8 7 8 9 8 9 9 10 10 10 10 10 10 9 7 6 5 5 5 6 8 10 11 9 7 6 5 5 5
8 8 9 9 9 9 9 10 10 10 12 13 13 14 14 13 13 13 13 13 13 11 10 11 10 10 9 9 9 8 9 9 8 7 7 7 8 8 8 9 10 11 10 9 10 9 8 6 6 5 5 5 6 8 9 10 10 8 6 5 5 4
8 8 8 8 8 9 9 10 10 10 11 11 12 13 13 13 13 14 14 14 13 11 11 11 10 9 9 9 9 8 9 9 8 8 8 8 8 8 8 9 10 11 11 10 9 9 8 6 6 6 5 4 6 8 9 9 9 8 7 6 5 4
7 7 8 7 7 8 8 8 10 9 9 10 11 12 13 13 13 14 14 14 13 11 12 11 10 9 10 10 9 9 9 10 9 8 9 9 8 9 10 10 9 10 12 10 9 9 9 7 6 7 5 4 6 8 10 9 9 8 7 6 5 4
7 7 7 7 7 7 7 8 8 8 8 8 10 12 13 14 14 15 15 14 12 11 12 12 10 10 10 10 10 10 10 11 10 9 10 9 8 9 11 10 7 8 11 11 8 7 7 7 7 7 6 5 5 8 9 10 9 9 8 7 6 5
8 8 7 6 7 6 7 7 7 7 8 7 8 10 11 14 14 15 15 14 13 12 12 11 11 10 10 10 11 11 12 12 11 10 10 8 8 9 11 11 9 9 10 9 8 6 5 6 7 7 7 6 5 7 9 10 9 9 9 8 8 6
10 9 8 7 7 7 7 7 7 8 8 7 8 7 8 12 14 14 14 14 14 13 12 11 11 11 10 9 10 11 12 12 12 11 11 10 9 9 10 11 12 11 9 8 7 6 5 5 7 6 6 7 6 6 8 10 10 9 9 9 8 8
12 11 10 9 9 8 7 7 8 8 7 8 8 7 7 9 11 13 13 13 12 12 12 11 11 10 8 9 12 12 11 12 13 13 12 11 10 10 10 10 11 11 9 8 6 6 6 4 5 5 5 6 6 6 7 8 9 10 10 9 9 9
13 11 10 9 8 8 7 7 7 7 7 6 7 7 8 9 9 10 11 11 11 12 13 12 11 9 8 12 16 14 12 14 15 14 12 10 9 9 9 8 9 10 10 9 7 6 6 5 4 5 5 5 6 7 7 8 9 9 10 10 10 10
13 12 10 9 8 7 6 6 6 6 5 6 8 9 10 10 10 10 10 11 12 12 12 12 12 9 8 13 16 15 15 16 18 16 13 10 9 8 7 8 9 9 10 9 8 7 6 6 5 5 5 5 6 8 8 9 10 10 11 11 12 12
13 12 10 9 8 7 7 6 6 5 5 6 9 10 10 10 10 11 11 11 11 11 8 6 7 5 4 9 13 12 10 12 16 17 15 12 9 8 8 8 9 9 9 8 8 7 6 6 6 6 6 7 7 9 9 10 11 12 11 11 13 13
14 12 10 9 8 7 7 7 5 4 4 4 5 6 7 8 8 8 9 9 10 10 7 4 3 1 1 6 10 6 4 8 11 11 12 12 11 11 11 10 9 8 8 8 8 7 6 4 5 6 7 7 9 10 12 12 13 14 13 12 13 14
14 12 10 10 9 8 7 6 5 4 4 3 3 3 3 4 4 3 4 5 7 7 6 5 3 1 1 2 6 5 5 7 7 6 8 14 15 15 14 13 11 9 7 7 7 7 7 5 4 4 5 7 9 11 13 14 15 15 14 13 12 13
15 13 12 11 10 9 7 6 5 5 5 4 4 4 3 3 2 1 1 0 1 2 2 3 4 4 3 2 2 3 6 5 4 4 8 15 18 16 13 12 12 11 10 9 7 6 7 7 7 6 5 6 8 11 13 15 16 16 15 15 13 14
15 14 14 13 12 10 8 7 7 7 6 5 5 5 5 5 5 6 5 5 4 2 2 2 1 2 3 3 1 2 4 2 3 4 7 11 15 15 14 14 14 15 15 13 11 9 8 8 9 8 7 7 8 10 12 15 17 17 17 16 15 15
15 15 15 14 12 11 9 7 7 7 6 6 5 6 7 7 7 7 7 6 5 4 4 4 3 3 2 2 3 3 2 2 4 4 5 5 10 15 16 15 14 15 17 16 13 12 11 10 10 9 9 8 9 10 11 14 17 18 18 18 17 16
16 16 16 14 13 11 9 7 7 7 6 6 6 6 6 6 6 6 6 5 5 4 4 4 5 5 5 4 3 3 3 5 6 4 4 4 5 9 13 15 14 12 14 15 13 12 11 11 11 10 11 10 9 10 11 13 14 16 18 18 18 17
18 17 17 16 14 12 9 8 7 7 6 6 7 6 6 5 5 5 4 4 4 3 3 3 5 6 6 6 5 5 3 4 5 4 4 4 4 5 7 11 13 12 13 13 12 11 9 8 9 11 14 13 10 9 10 11 12 13 16 18 19 19
20 19 18 17 16 13 11 10 9 8 7 7 8 7 6 5 5 4 3 3 3 4 3 4 5 6 7 7 6 7 6 4 3 3 3 3 4 3 4 7 9 10 11 12 12 11 9 7 6 9 12 13 12 10 9 9 10 11 14 16 17 19
21 20 19 17 15 13 12 12 11 10 9 10 9 8 7 6 5 4 3 3 4 5 5 6 7 7 8 8 9 10 10 8 7 6 6 5 5 3 4 5 5 5 7 11 11 10 9 8 7 9 8 5 7 8 8 9 9 11 12 13 15 17
22 22 19 16 13 12 11 11 10 10 10 10 10 8 7 6 5 4 3 4 4 5 6 7 8 8 9 10 11 13 13 12 11 10 10 11 10 8 7 6 6 6 6 8 7 6 8 8 8 8 6 2 1 2 4 6 6 8 9 11 13 15
23 22 20 17 14 12 12 10 9 9 9 9 9 8 6 6 6 5 4 3 3 4 6 7 8 9 10 10 11 12 12 11 11 11 11 13 13 12 10 9 7 6 7 8 7 4 5 7 8 8 4 1 1 1 2 2 2 4 5 5 7 9
24 23 21 19 16 14 13 12 11 10 9 8 8 8 7 8 7 6 4 3 4 6 7 8 8 9 10 9 9 9 9 9 9 9 9 10 12 13 12 10 8 6 5 7 7 6 5 4 7 9 5 2 2 1 2 1 1 3 3 1 1 1
25 24 22 20 18 16 15 14 13 13 11 9 9 9 9 9 8 7 5 4 5 8 8 8 9 9 9 8 7 7 6 7 8 8 9 10 11 11 11 11 10 8 7 5 6 6 6 6 5 6 5 4 3 1 1 1 1 2 1 2 1 2
26 25 24 22 20 18 17 16 15 15 14 12 11 11 10 9 8 7 6 5 7 8 8 7 7 7 7 6 5 5 5 6 8 8 9 11 11 10 10 10 10 9 9 6 5 6 6 5 5 5 3 1 2 1 1 1 1 2 2 2 1 2
27 26 25 25 23 21 19 18 17 16 15 14 12 11 10 10 9 8 7 6 7 8 8 8 7 6 6 5 6 7 7 9 10 11 11 12 12 11 9 9 9 8 8 7 7 7 6 5 4 4 4 3 2 1 1 1 2 2 2 2 2 2
29 28 27 27 26 23 21 19 18 18 17 16 13 11 11 12 11 10 9 8 7 8 9 9 9 8 8 9 11 12 12 12 13 13 13 12 12 11 10 9 9 8 8 8 8 7 7 7 6 5 4 4 5 4 2 2 4 4 2 3 2 2
30 30 29 29 28 26 23 21 20 19 19 18 15 12 12 13 12 11 10 9 9 9 9 9 10 11 11 11 12 12 12 12 12 12 12 12 12 12 11 11 11 10 9 9 9 8 7 8 7 7 6 5 5 5 3 3 4 5 4 3 3 4
32 32 31 31 29 27 25 24 22 20 20 19 17 14 14 15 14 13 12 11 10 10 10 10 11 10 10 10 10 9 9 10 10 11 11 12 12 12 12 12 12 12 12 12 11 10 9 8 8 8 8 7 6 5 4 3 4 5 4 4 4 5
34 33 33 32 31 29 27 25 24 22 21 21 19 17 16 17 16 15 14 13 12 12 12 12 11 10 10 9 8 8 7 8 8 9 10 11 11 11 11 11 12 12 13 13 12 12 12 11 10 9 9 8 6 5 4 4 3 4 5 5 6 6
35 35 34 34 32 31 29 27 26 24 23 22 22 19 18 18 17 16 15 15 14 14 14 14 13 12 11 9 8 7 7 6 6 7 8 9 10 11 11 11 11 11 12 12 11 12 12 12 11 10 8 7 6 5 5 4 4 4 4 5 6 7
34 35 35 34 33 32 31 29 27 26 24 23 23 22 20 19 18 17 16 16 16 16 16 15 15 14 12 11 9 7 7 6 5 5 6 7 8 9 10 11 11 11 11 10 10 11 11 10 11 10 9 7 7 6 5 4 4 4 4 4 5 6
31 32 33 33 33 33 32 31 29 27 26 25 24 23 22 20 19 18 17 17 17 16 16 15 14 14 13 12 10 8 7 6 5 5 5 6 7 7 9 10 10 10 10 9 9 9 9 8 8 8 8 7 6 6 5 5 4 4 4 4 4 5
29 30 32 33 34 33 33 32 30 29 28 27 26 25 24 22 20 19 18 17 17 16 16 15 14 14 14 12 11 9 8 7 6 5 5 5 6 6 7 8 9 9 8 8 7 7 7 7 7 7 6 6 6 5 5 4 4 4 4 3 4 4
29 30 31 32 33 33 33 32 31 30 29 28 28 27 26 24 22 20 19 18 17 17 16 15 15 15 15 14 12 10 9 8 7 5 5 5 5 6 7 7 8 7 6 6 5 5 5 5 5 5 5 5 4 4 4 3 3 3 3 3 3 3
Wind_Direction
141 143 143 146 157 164 172 180 177 179 183 181 177 173 177 184 184 179 175 178 180 183 190 190 182 181 181 177 177 180 179 174 173 176 174 180 189 192 187 186 186 190 195 192 187 189 193 199 206 226 246 250 226 200 193 194 199 195 184 172 155 153
140 139 138 140 149 155 161 169 170 175 181 182 183 182 182 184 185 180 181 184 182 184 191 193 188 184 183 183 185 186 186 182 179 182 181 179 186 197 196 186 182 187 192 190 186 188 193 196 201 215 229 241 227 207 199 196 197 198 189 177 167 161
143 141 139 140 144 150 157 161 165 174 178 183 187 187 185 182 183 186 189 189 184 183 191 195 194 188 186 187 191 193 193 192 189 189 188 186 183 193 204 195 189 191 189 187 186 190 196 196 197 208 215 232 231 208 201 200 197 200 196 183 176 165
146 147 144 145 148 153 161 162 168 178 177 182 191 190 189 187 183 189 193 192 188 184 191 200 199 190 188 192 196 198 199 201 201 200 197 197 192 189 201 204 199 198 193 188 189 194 200 199 196 208 212 221 228 204 197 204 202 203 201 190 185 170
153 154 152 153 154 159 166 167 172 183 182 185 196 193 195 197 188 191 195 194 192 188 195 203 202 195 195 199 204 205 204 205 205 209 205 204 206 202 202 206 205 202 200 194 190 196 204 205 197 207 217 212 217 201 193 205 207 207 206 200 196 178
160 161 160 160 158 163 169 171 175 183 186 188 198 198 200 204 198 196 198 196 194 194 200 205 203 202 203 205 210 212 212 210 206 211 213 210 213 215 214 215 211 202 203 201 194 196 204 211 201 202 215 210 209 202 194 201 206 210 212 208 207 191
167 167 165 166 165 169 173 176 178 181 187 188 194 201 202 204 203 201 199 198 198 200 206 208 207 207 209 209 210 212 213 213 209 213 218 216 219 224 224 223 219 206 202 203 200 197 204 215 209 198 207 209 208 208 201 202 207 210 216 216 215 205
176 174 169 171 174 178 181 177 177 187 198 192 191 200 202 201 203 203 202 201 203 208 212 214 212 210 212 214 216 215 214 213 209 213 217 217 222 227 229 227 227 220 206 204 206 200 200 214 214 202 200 203 208 213 208 208 210 211 216 220 223 219
177 177 177 182 187 189 186 179 182 196 198 196 200 198 196 200 203 205 207 207 209 212 218 222 218 218 220 220 225 222 219 219 214 214 214 215 221 223 229 229 228 225 213 209 211 198 190 205 216 212 202 199 201 210 213 211 212 213 217 221 225 229
174 175 180 186 193 195 193 187 191 199 193 198 210 200 191 197 202 208 212 214 216 218 224 226 223 224 223 226 232 226 222 224 221 218 214 213 216 217 224 226 225 222 215 215 212 192 185 198 216 219 213 207 204 209 214 212 212 216 221 225 227 232
175 176 181 186 192 196 197 193 195 198 198 204 206 200 199 200 208 214 217 220 220 222 229 227 224 223 217 232 239 230 225 229 228 225 219 218 219 219 219 219 220 216 211 214 214 198 188 199 215 225 226 226 222 221 224 223 222 222 223 228 230 234
179 182 184 188 191 195 198 195 197 198 204 212 206 202 203 202 210 214 217 223 223 228 237 235 230 230 226 240 248 240 234 232 230 229 222 218 222 226 218 211 216 214 212 214 218 214 202 209 221 228 231 238 239 233 234 235 235 233 228 229 230 234
184 187 188 190 192 199 202 200 202 201 208 220 216 213 211 213 219 220 222 229 233 231 235 245 240 241 239 250 255 247 241 237 234 232 221 209 210 221 220 216 218 217 219 218 219 227 226 227 232 230 228 236 242 241 241 240 240 241 238 236 234 235
187 189 188 189 193 200 205 203 201 204 210 214 214 215 215 222 233 237 239 246 255 245 236 260 273 277 224 257 270 271 259 252 252 246 222 207 205 212 214 217 220 216 220 221 221 231 236 240 242 234 233 239 242 244 248 247 246 247 246 244 240 237
188 188 186 187 190 194 199 197 190 181 176 167 168 179 188 207 227 245 255 259 267 266 263 270 271 325 34 297 295 283 257 248 258 261 221 209 209 210 209 211 216 210 212 224 225 231 240 254 267 252 250 252 249 252 254 253 251 252 250 247 244 240
186 182 182 182 182 184 184 174 158 141 134 135 143 148 151 157 161 132 98 31 290 285 299 277 261 278 288 323 354 272 260 243 235 237 220 217 213 211 211 213 218 215 214 226 232 237 246 257 270 274 275 268 261 260 258 255 254 254 253 249 247 245
182 176 175 176 175 175 171 158 144 132 122 120 126 130 133 126 109 103 95 76 74 77 48 41 348 295 250 240 156 244 276 243 208 212 213 220 214 209 210 213 220 221 222 231 241 253 260 262 267 273 281 288 285 271 258 254 254 255 255 253 251 250
179 173 172 174 175 173 168 163 153 140 128 124 128 127 124 118 110 102 92 78 71 71 62 64 66 67 105 157 182 226 258 194 199 198 191 204 204 206 211 215 220 224 229 234 242 255 263 265 265 271 279 284 291 283 262 251 250 253 255 254 252 252
180 175 176 176 177 175 171 173 164 149 142 141 144 143 132 121 113 102 90 75 62 62 59 67 77 75 87 98 128 178 199 203 207 198 191 197 196 204 213 218 221 224 230 233 238 247 256 260 259 265 272 273 288 297 277 251 243 248 251 251 250 251
184 180 180 179 178 179 175 176 173 161 155 154 159 161 150 132 118 102 91 76 62 62 54 64 73 75 88 92 95 111 137 191 203 201 205 212 205 204 209 214 218 218 225 232 236 240 246 253 255 258 264 268 279 295 291 264 244 242 246 248 250 251
187 186 186 184 181 183 179 176 175 169 163 161 165 166 157 144 128 116 101 83 71 68 66 68 70 74 89 95 93 97 102 121 150 168 169 174 187 193 188 198 210 215 223 231 232 236 240 238 239 244 253 267 271 271 283 278 257 248 249 250 252 252
190 189 192 191 187 188 183 178 178 175 169 165 166 166 162 154 141 134 116 91 79 73 71 73 73 80 93 97 98 97 97 98 95 102 110 112 118 119 129 156 181 198 217 224 220 223 226 219 219 223 227 264 277 268 273 275 262 255 253 252 253 253
193 192 193 194 193 190 180 179 184 180 174 168 167 167 165 160 151 145 122 96 81 74 77 79 78 85 98 105 104 99 96 93 91 92 92 93 94 94 100 112 134 156 178 195 194 197 207 211 211 202 199 227 265 284 275 266 256 251 253 253 251 251
193 192 192 193 193 189 178 178 185 182 179 173 167 166 164 159 154 146 129 101 70 78 89 90 87 90 102 109 105 101 99 94 91 90 87 86 85 85 85 87 104 125 139 153 151 147 177 199 202 188 171 194 153 122 248 259 269 253 246 251 249 249
192 191 191 192 191 188 180 178 177 177 179 171 162 163 161 158 156 148 133 100 69 93 106 103 100 100 103 107 103 99 97 95 92 87 86 86 84 82 83 82 89 102 116 135 135 122 120 149 191 196 188 168 158 178 219 191 303 238 197 205 264 185
191 190 190 192 192 190 185 182 180 178 178 174 169 172 171 164 159 153 134 99 88 106 118 113 106 105 105 105 104 99 94 94 90 86 88 90 87 83 83 82 84 92 99 108 121 115 99 99 141 177 190 210 219 182 142 146 237 227 204 281 245 129
192 190 190 192 193 192 188 189 190 190 192 191 187 185 179 168 160 157 145 115 101 111 123 124 117 110 106 102 100 98 95 94 89 87 87 87 86 82 81 81 80 87 93 92 98 102 91 87 105 110 106 190 219 190 234 247 247 266 288 291 243 243
194 191 191 193 195 193 189 191 195 199 203 203 201 192 180 173 168 164 157 138 119 115 119 123 126 121 111 102 98 100 99 97 94 91 87 84 83 83 82 81 79 80 84 83 81 83 75 63 64 62 55 47 47 48 293 326 5 327 286 268 280 289
196 194 193 194 196 196 193 195 198 203 207 210 211 200 185 181 178 172 166 156 141 129 121 117 118 118 114 108 103 102 99 96 92 88 85 83 81 81 80 78 78 78 79 80 77 77 74 64 56 44 31 27 29 24 7 17 22 5 317 278 284 298
198 196 196 195 197 199 199 200 203 208 212 213 214 206 191 186 184 180 176 168 160 150 137 128 124 121 118 114 109 105 100 95 89 83 79 79 80 80 79 77 78 80 82 82 80 82 80 72 65 56 45 34 22 12 354 347 3 358 326 290 285 287
200 200 199 197 199 202 203 205 207 211 216 217 217 210 198 192 189 186 184 179 175 168 156 147 142 136 132 128 121 114 105 95 88 81 78 81 85 84 82 81 81 82 81 80 80 81 80 74 68 61 56 52 43 32 20 1 350 342 320 301 298 289
202 202 201 200 201 204 206 209 211 212 217 220 221 216 207 203 199 194 192 188 183 179 172 165 160 156 154 149 141 131 117 101 88 80 78 84 89 89 88 87 85 84 81 79 79 79 76 70 67 62 57 56 56 52 44 27 359 335 317 307 303 292
202 203 203 203 203 205 208 211 214 215 216 220 223 222 217 213 210 204 200 196 190 188 184 179 176 174 170 166 159 147 133 117 99 85 80 85 89 91 94 94 91 89 85 81 80 80 77 70 66 63 59 57 57 56 49 34 15 347 323 307 298 292
204 204 204 205 206 207 210 213 216 218 218 220 224 226 225 222 219 215 209 205 201 199 196 191 187 183 179 174 171 164 153 141 122 99 88 88 88 88 94 98 98 95 91 88 85 84 82 75 68 64 61 61 57 53 45 29 18 5 345 320 301 300
206 206 207 208 209 210 212 214 218 221 222 223 225 229 231 231 228 224 219 215 212 209 207 203 195 189 184 180 179 176 169 161 145 123 106 101 96 91 93 98 100 98 95 94 93 91 87 81 74 69 66 64 60 54 42 28 19 7 356 340 314 305
209 209 210 211 212 213 215 216 219 222 225 227 228 231 233 235 235 233 229 224 220 217 215 211 202 193 189 187 187 185 180 174 163 142 126 119 110 101 98 98 99 98 96 94 94 94 88 82 78 75 71 66 62 57 44 32 25 12 358 341 321 306
213 213 215 215 215 216 217 218 220 223 227 230 231 232 234 237 240 240 237 232 228 224 221 217 207 198 195 193 192 192 188 181 173 157 141 136 124 109 105 103 102 101 97 94 93 89 83 77 73 69 67 62 55 51 42 31 25 17 5 342 319 298